星链-6070 (STARLINK-6070 )

导读

STARLINK-6070是美国SpaceX星链互联网卫星,于2023年5月31日发射,是星链星座的组成部分。星链旨在构建全球卫星互联网,为偏远地区等提供网络接入,该卫星入轨后服务于星座组网,进一步扩展星链的全球覆盖能力,推动低轨卫星互联网的部署进程。

Basic Information
目录编号:
56802
目录名称:
STARLINK-6070
国际标识:
2023-078AM
轨道中心:
EARTH
卫星名称:
星链-6070
卫星全名:
星链-6070 (STARLINK-6070 )
卫星状态:
已陨落 最后检测时间 2026-05-09
发射日期:
2023-05-31 UTC
国别 :
美国 (US)
星等 :
--
Orbit Information
数据来源 国际轨道数据
星历时间: 2026-05-09T19:21:36+0800
轨道信息已过期36天
半长轴: 6533.052km
偏心率: 0.0010376
轨道倾角: 69.990°
近地点辐角 260.975°
升交点赤经 149.339°
平近点角 99.031°
近地点: 148.136km
远地点: 161.694km
周期: 87.586分钟
每日圈数: 16.441016
Detailed Information
固有亮度:
5
最大亮度:
2.5
卫星平台:
Starlink v1.5
覆盖范围:
全球
运营商:
太空探索技术公司
运营商所在国:
美国
制造商(研发单位):
太空探索技术公司
制造商所在国:
美国
使用方式:
暂无
Satellite Introduction
星链(Starlink)计划是由太空探索技术公司(SpaceX)提出的一个巨型低轨卫星互联网星座项目,计划在2019年至2024年间在太空搭建由约1.2万颗卫星组成的“星链”网络,其中1584颗将部署在地球上空550千米处的近地轨道,并从2020年开始工作。该卫星仍在工作。